Zurück zum Katalog

ASIASAT 7

AktivKommunikationGEO
NORAD 37933·PAYLOAD·🇸🇭 SH

Gestartet Nov 25, 2011 von Baikonur Cosmodrome

Loading…

TLE

AktuellSource: Space-Track

Epoche: Sep 14, 2026, 14:18 UTC

1 37933U 11069A   26257.59598777  .00000000  00000-0  00000-0 0  9991
2 37933   0.0182 161.7588 0001476 343.2272 168.6319  1.00266918 45753

Verfolge ASIASAT 7 in Echtzeit mit AllMySat

Download on the App Store